Location: Cahas Mountain Overlook
(37.0833°N, 80.1000°W)
Time: 04:08:24
(UTC-05:00)

A-11 Canister half - Visible Passes

Search period start: 28 January 2022 00:00
Search period end: 07 February 2022 00:00
Orbit: 1516 x 1684 km, 47.2° (Epoch: 27 January)

Date Brightness Start Highest point End Pass type
(mag) Time Alt. Az. Time Alt. Az. Time Alt. Az.
28 Jan 9.5 19:08:21 10° WNW 19:17:16 45° N 19:22:14 26° ENE visible
28 Jan 9.6 21:14:10 10° WNW 21:20:26 46° NW 21:20:26 46° NW visible
29 Jan 9.5 18:45:19 10° WNW 18:54:15 45° N 19:00:40 19° ENE visible
29 Jan 9.2 20:51:15 10° WNW 20:58:53 57° NNW 20:58:53 57° NNW visible
29 Jan 11.1 22:56:27 10° WNW 22:57:05 12° WNW 22:57:05 12° WNW visible
30 Jan 9.5 18:22:17 10° WNW 18:31:15 45° N 18:39:10 13° ENE visible
30 Jan 8.9 20:28:18 10° WNW 20:37:22 63° NNE 20:37:22 63° NNE visible
30 Jan 10.8 22:33:29 10° WNW 22:35:35 19° WNW 22:35:35 19° WNW visible
31 Jan 9.5 17:59:15 10° WNW 18:08:15 45° N 18:17:03 10° ENE visible
31 Jan 8.9 20:05:21 10° WNW 20:14:35 61° NNE 20:15:53 56° NE visible
31 Jan 10.4 22:10:32 10° WNW 22:14:06 26° WNW 22:14:06 26° WNW visible
01 Feb 9.0 19:42:24 10° WNW 19:51:38 59° NNE 19:54:27 44° ENE visible
01 Feb 10.0 21:47:35 10° WNW 21:52:39 36° WNW 21:52:39 36° WNW visible
02 Feb 9.1 19:19:26 10° WNW 19:28:39 57° NNE 19:33:03 32° E visible
02 Feb 9.5 21:24:38 10° WNW 21:31:17 49° W 21:31:17 49° W visible
03 Feb 9.2 18:56:28 10° WNW 19:05:41 55° NNE 19:11:44 23° E visible
03 Feb 9.1 21:01:41 10° WNW 21:09:58 65° WSW 21:09:58 65° WSW visible
04 Feb 9.2 18:33:31 10° WNW 18:42:43 54° NNE 18:50:29 15° E visible
04 Feb 8.9 20:38:45 10° WNW 20:48:01 72° SW 20:48:43 70° S visible
04 Feb 11.0 22:45:38 10° W 22:46:57 13° W 22:46:57 13° W visible
05 Feb 9.3 18:10:31 10° WNW 18:19:44 52° NNE 18:28:43 10° E visible
05 Feb 8.9 20:15:49 10° WNW 20:25:07 76° SW 20:27:33 54° SSE visible
05 Feb 10.8 22:22:25 10° W 22:25:48 18° W 22:25:48 18° W visible
06 Feb 8.9 19:52:52 10° WNW 20:02:14 80° SW 20:06:30 37° SE visible
06 Feb 10.5 21:59:15 10° WNW 22:04:45 23° WSW 22:04:45 23° WSW visible
